Location: Pella
(41.4080°N, 92.9160°W)
Time: 07:14:32
(UTC-05:00)

ASTRO E2 - Visible Passes

Search period start: 26 July 2016 00:00
Search period end: 05 August 2016 00:00
Orbit: 518 x 524 km, 31.4° (Epoch: 25 July)

Date Brightness Start Highest point End Pass type
(mag) Time Alt. Az. Time Alt. Az. Time Alt. Az.
26 Jul 4.6 05:13:08 11° SW 05:14:54 14° SSW 05:16:57 10° SSE visible
27 Jul 4.7 04:58:28 12° SSW 04:58:46 12° SSW 05:00:27 10° S visible
02 Aug 4.8 22:03:45 10° SSW 22:04:43 13° SSW 22:04:43 13° SSW visible
03 Aug 4.4 21:47:26 10° SSW 21:49:51 16° S 21:49:51 16° S visible
04 Aug 4.3 21:31:11 10° SW 21:33:52 17° S 21:34:50 16° SSE visible
